Showing default

COSMOS 1560, 14999

Orbit data source: Space-Track

COSMOS 1560, 14999 is a payload satellite owned by GUKOS (CIS) in LEO that was launched on Mon, 28 May 1984 UTC via a KOSMOS 11K65M launch vehicle from the Plesetsk Missile And Space Complex (PKMTR). Payload-class satellites include a variety of spacecraft equipped with specific instruments for various scientific and technological missions. These include communications satellites like Starlink; space stations such as the ISS; scientific satellites like the Hubble; Earth observation satellites from companies like Planet Labs, Umbra, and HawkEye 360; GPS; miniature CubeSats for education and research; and military/defense satellites.

Loading next visibility...
Identifier
14999, 1984-052B
Orbit
LEO
Last TLE update
15 hours ago
Origin
Manufacturer
NPO PM
Mission
Defense Communications
Bus & Motor
STRELA-1 11F625, Unknown motor
Mass
60 kg wet, 60 kg dry
Launch date (UTC)
1984-05-28 (41 years ago)
Launch vehicle
KOSMOS 11K65M
Launch site
Plesetsk Missile And Space Complex (PKMTR)
Object type
Payload
Rocket body
Debris
Shape & HBR
Sphere, 0.8 m
Radar Cross Section
0.588 m², Medium (>0.1 m² and < 1m²)

Expand to show TLE details & history

TLE from 15 hours ago
0 COSMOS 1560
1 14999U 84052B   25183.49972416 -.00000017  00000-0 -95351-5 0  9990
2 14999  74.0092 203.8576 0013681 183.8216 289.3424 12.46111758869275
Epoch: 2025-07-02T11:59Z
TLE epoch observation values (Epoch: 2025-07-02T11:59:36.167Z)
Latitude
62.3185°
Longitude
-109.75146°
Altitude
1,487.565 km
Speed
7.127 km/s
True Right ascension
23h 23m 43s
True Declination
62° 11' 24"
Sunlit
Object was in daylight at epoch
Visualization orbit readout
Latitude
55.12832°
Longitude
126.50034°
Altitude
1,495.599 km
Speed
7.119 km/s
Apparent Right ascension
00h 14m 30s
Apparent Declination
77° 38' 27"
Sunlit
Object is in daylight
Visualization observer readout
Local Sidereal Time
14:51:59
Azimuth
9.02° NNE
Elevation
29.993°
Doppler factor
1
Orbital elements
Apogee altitude
1,489.391 km
Perigee altitude
1,467.893 km
Semi-major axis
7,856.779 km
Eccentricity
0.00137
Inclination
74.0092°
RAAN
203.8576°
Arg. of periapsis
183.8216°
True anomaly
Unknown
Mean anomaly
289.3424°
Eccentric anomaly
Unknown
Mean motion
3.11657 °/min
Orbital period
115.51 mins
BSTAR
-0.0000095351
Loading maneuver chart data...
Loading SW <> Apogee altitude chart data...
Loading historical data...
Loading historical data...
Loading historical data...
Loading historical data...
Loading historical data...
Loading historical data...
Loading historical data...

COSMOS 1560 Visibility forecast

Observer location: undefined°, undefined°

Span
Click to sort rows by Start time (UTC) header in descending order
Start Az.
Max El. time (UTC)
Max El. Az.
Max El.
End time (UTC)
End Az.
8 mins2025-07-03 04:57:52.021Z285.8° WNW2025-07-03 05:01:52.021Z315.951° NNW16.103°2025-07-03 05:05:52.021Z345.408° N
12 mins2025-07-03 11:06:52.021Z8.22° NNE2025-07-03 11:11:52.021Z51.716° ENE25.256°2025-07-03 11:18:52.021Z109.206° ESE
15 mins2025-07-03 13:03:52.021Z334.202° NNW2025-07-03 13:10:52.021Z253.826° W42.925°2025-07-03 13:18:52.021Z176.124° S
16 mins2025-07-04 02:00:52.021Z181.773° SSW2025-07-04 02:07:52.021Z118.967° SE42.412°2025-07-04 02:16:52.021Z24.379° NE
|